| time (UTC) | temp F | wind direction | speed MPH | gust MPH | rain 1hr in | rain 24hr in | rain mn in | humidity % | barometer mb |
| 20260902224505 | 98 | 66 | 4.0 | 10.0 | 0.00 | 0.00 | 0.00 | 40 | 1012.0 |
| 20260902224006 | 98 | 88 | 7.0 | 13.0 | 0.00 | 0.00 | 0.00 | 41 | 1011.9 |
| 20260902223506 | 98 | 49 | 7.0 | 14.0 | 0.00 | 0.00 | 0.00 | 41 | 1011.8 |
| 20260902223005 | 98 | 118 | 3.0 | 9.0 | 0.00 | 0.00 | 0.00 | 40 | 1012.0 |
| 20260902222506 | 98 | 132 | 5.0 | 13.0 | 0.00 | 0.00 | 0.00 | 40 | 1012.0 |
| 20260902221505 | 98 | 134 | 7.0 | 13.0 | 0.00 | 0.00 | 0.00 | 40 | 1012.0 |
| 20260902221006 | 98 | 119 | 7.0 | 13.0 | 0.00 | 0.00 | 0.00 | 39 | 1012.0 |
| 20260902220505 | 98 | 65 | 4.0 | 10.0 | 0.00 | 0.00 | 0.00 | 40 | 1012.1 |
| 20260902220006 | 99 | 110 | 7.0 | 13.0 | 0.00 | 0.00 | 0.00 | 39 | 1012.1 |
| 20260902215505 | 98 | 72 | 4.0 | 10.0 | 0.00 | 0.00 | 0.00 | 39 | 1012.1 |
| 20260902215005 | 99 | 61 | 7.0 | 13.0 | 0.00 | 0.00 | 0.00 | 40 | 1012.2 |
| 20260902214505 | 99 | 108 | 7.0 | 10.0 | 0.00 | 0.00 | 0.00 | 40 | 1012.2 |
| 20260902214005 | 99 | 176 | 5.0 | 12.0 | 0.00 | 0.00 | 0.00 | 39 | 1012.3 |
| 20260902213505 | 100 | 78 | 6.0 | 10.0 | 0.00 | 0.00 | 0.00 | 38 | 1012.4 |
| 20260902213005 | 99 | 122 | 8.0 | 15.0 | 0.00 | 0.00 | 0.00 | 38 | 1012.4 |
| 20260902212505 | 99 | 132 | 5.0 | 10.0 | 0.00 | 0.00 | 0.00 | 39 | 1012.4 |
| 20260902212006 | 99 | 81 | 5.0 | 12.0 | 0.00 | 0.00 | 0.00 | 39 | 1012.5 |
| 20260902211505 | 99 | 80 | 6.0 | 10.0 | 0.00 | 0.00 | 0.00 | 39 | 1012.5 |
| 20260902211005 | 99 | 106 | 8.0 | 14.0 | 0.00 | 0.00 | 0.00 | 39 | 1012.7 |
| 20260902210505 | 99 | 129 | 7.0 | 13.0 | 0.00 | 0.00 | 0.00 | 39 | 1012.8 |
| 20260902210005 | 99 | 78 | 6.0 | 12.0 | 0.00 | 0.00 | 0.00 | 40 | 1013.0 |
| 20260902205506 | 99 | 136 | 9.0 | 14.0 | 0.00 | 0.00 | 0.00 | 39 | 1013.0 |
| 20260902205005 | 100 | 78 | 7.0 | 13.0 | 0.00 | 0.00 | 0.00 | 39 | 1013.0 |
| 20260902204506 | 99 | 94 | 5.0 | 13.0 | 0.00 | 0.00 | 0.00 | 39 | 1013.0 |
| 20260902204005 | 99 | 92 | 7.0 | 17.0 | 0.00 | 0.00 | 0.00 | 39 | 1013.1 |
| 20260902203505 | 99 | 144 | 4.0 | 13.0 | 0.00 | 0.00 | 0.00 | 40 | 1013.2 |
| 20260902203005 | 99 | 125 | 8.0 | 13.0 | 0.00 | 0.00 | 0.00 | 40 | 1013.4 |
| 20260902202505 | 99 | 116 | 7.0 | 13.0 | 0.00 | 0.00 | 0.00 | 40 | 1013.4 |
| 20260902202005 | 99 | 143 | 4.0 | 12.0 | 0.00 | 0.00 | 0.00 | 40 | 1013.6 |
| 20260902201505 | 98 | 116 | 4.0 | 10.0 | 0.00 | 0.00 | 0.00 | 40 | 1013.7 |
| 20260902200506 | 98 | 96 | 6.0 | 13.0 | 0.00 | 0.00 | 0.00 | 41 | 1013.9 |
| 20260902200005 | 98 | 107 | 8.0 | 14.0 | 0.00 | 0.00 | 0.00 | 41 | 1013.9 |
| 20260902195505 | 98 | 104 | 2.0 | 10.0 | 0.00 | 0.00 | 0.00 | 42 | 1014.0 |
| 20260902195005 | 98 | 94 | 5.0 | 12.0 | 0.00 | 0.00 | 0.00 | 43 | 1014.2 |
| 20260902194506 | 98 | 115 | 6.0 | 13.0 | 0.00 | 0.00 | 0.00 | 41 | 1014.1 |
| 20260902193505 | 97 | 16 | 3.0 | 8.0 | 0.00 | 0.00 | 0.00 | 43 | 1014.4 |
| 20260902193006 | 97 | 72 | 5.0 | 10.0 | 0.00 | 0.00 | 0.00 | 43 | 1014.4 |
| 20260902192505 | 97 | 120 | 5.0 | 9.0 | 0.00 | 0.00 | 0.00 | 43 | 1014.5 |
| 20260902192005 | 97 | 115 | 8.0 | 13.0 | 0.00 | 0.00 | 0.00 | 44 | 1014.5 |
| 20260902191506 | 96 | 107 | 3.0 | 10.0 | 0.00 | 0.00 | 0.00 | 45 | 1014.6 |
| 20260902190505 | 96 | 105 | 4.0 | 9.0 | 0.00 | 0.00 | 0.00 | 47 | 1014.7 |
| 20260902190005 | 96 | 128 | 1.0 | 8.0 | 0.00 | 0.00 | 0.00 | 45 | 1014.9 |
| 20260902185506 | 96 | 72 | 4.0 | 13.0 | 0.00 | 0.00 | 0.00 | 44 | 1014.9 |
| 20260902185005 | 96 | 137 | 7.0 | 13.0 | 0.00 | 0.00 | 0.00 | 43 | 1015.0 |
| 20260902184505 | 96 | 87 | 6.0 | 13.0 | 0.00 | 0.00 | 0.00 | 45 | 1015.1 |
| 20260902184005 | 96 | 12 | 6.0 | 10.0 | 0.00 | 0.00 | 0.00 | 46 | 1015.2 |
| 20260902183505 | 96 | 70 | 5.0 | 13.0 | 0.00 | 0.00 | 0.00 | 47 | 1015.2 |
| 20260902183005 | 95 | 100 | 3.0 | 12.0 | 0.00 | 0.00 | 0.00 | 47 | 1015.3 |
| 20260902182505 | 96 | 129 | 6.0 | 10.0 | 0.00 | 0.00 | 0.00 | 45 | 1015.5 |
| 20260902182005 | 95 | 84 | 6.0 | 14.0 | 0.00 | 0.00 | 0.00 | 46 | 1015.5 |
| 20260902181505 | 94 | 124 | 5.0 | 8.0 | 0.00 | 0.00 | 0.00 | 48 | 1015.6 |
| 20260902181005 | 95 | 96 | 5.0 | 10.0 | 0.00 | 0.00 | 0.00 | 47 | 1015.7 |
| 20260902180007 | 95 | 20 | 3.0 | 12.0 | 0.00 | 0.00 | 0.00 | 47 | 1015.8 |
| 20260902175005 | 94 | 103 | 5.0 | 10.0 | 0.00 | 0.00 | 0.00 | 48 | 1016.1 |
| 20260902173505 | 94 | 122 | 5.0 | 9.0 | 0.00 | 0.00 | 0.00 | 49 | 1016.2 |
| 20260902173005 | 94 | 105 | 2.0 | 8.0 | 0.00 | 0.00 | 0.00 | 51 | 1016.3 |
| 20260902172505 | 94 | 126 | 7.0 | 9.0 | 0.00 | 0.00 | 0.00 | 50 | 1016.3 |
| 20260902172005 | 94 | 126 | 3.0 | 9.0 | 0.00 | 0.00 | 0.00 | 50 | 1016.5 |
| 20260902171504 | 93 | 52 | 6.0 | 9.0 | 0.00 | 0.00 | 0.00 | 50 | 1016.6 |
| 20260902171005 | 93 | 96 | 3.0 | 9.0 | 0.00 | 0.00 | 0.00 | 51 | 1016.7 |
| 20260902170505 | 93 | 169 | 2.0 | 7.0 | 0.00 | 0.00 | 0.00 | 52 | 1016.7 |
| 20260902170005 | 93 | 77 | 5.0 | 12.0 | 0.00 | 0.00 | 0.00 | 53 | 1016.7 |
| 20260902165505 | 92 | 104 | 6.0 | 9.0 | 0.00 | 0.00 | 0.00 | 53 | 1016.7 |
| 20260902165004 | 92 | 121 | 5.0 | 9.0 | 0.00 | 0.00 | 0.00 | 55 | 1016.8 |
| 20260902164004 | 92 | 123 | 5.0 | 10.0 | 0.00 | 0.00 | 0.00 | 56 | 1016.9 |
| 20260902162504 | 91 | 86 | 6.0 | 12.0 | 0.00 | 0.00 | 0.00 | 57 | 1017.1 |
| 20260902162005 | 91 | 133 | 5.0 | 8.0 | 0.00 | 0.00 | 0.00 | 57 | 1017.1 |
| 20260902161505 | 91 | 127 | 2.0 | 6.0 | 0.00 | 0.00 | 0.00 | 57 | 1017.1 |
| 20260902161005 | 90 | 62 | 3.0 | 9.0 | 0.00 | 0.00 | 0.00 | 59 | 1017.1 |
| 20260902160504 | 90 | 99 | 4.0 | 9.0 | 0.00 | 0.00 | 0.00 | 59 | 1017.2 |
| 20260902160007 | 90 | 184 | 6.0 | 9.0 | 0.00 | 0.00 | 0.00 | 59 | 1017.2 |
| 20260902155504 | 89 | 165 | 5.0 | 9.0 | 0.00 | 0.00 | 0.00 | 59 | 1017.2 |
| 20260902155005 | 89 | 182 | 5.0 | 8.0 | 0.00 | 0.00 | 0.00 | 59 | 1017.1 |
| 20260902154505 | 89 | 169 | 7.0 | 12.0 | 0.00 | 0.00 | 0.00 | 59 | 1017.2 |
| 20260902154004 | 89 | 162 | 3.0 | 10.0 | 0.00 | 0.00 | 0.00 | 60 | 1017.2 |
| 20260902153505 | 89 | 150 | 4.0 | 9.0 | 0.00 | 0.00 | 0.00 | 60 | 1017.0 |
| 20260902152504 | 88 | 99 | 5.0 | 10.0 | 0.00 | 0.00 | 0.00 | 62 | 1017.1 |
| 20260902152005 | 88 | 93 | 3.0 | 10.0 | 0.00 | 0.00 | 0.00 | 63 | 1017.1 |
| 20260902151504 | 87 | 162 | 2.0 | 7.0 | 0.00 | 0.00 | 0.00 | 64 | 1016.9 |
| 20260902151005 | 87 | 115 | 5.0 | 9.0 | 0.00 | 0.00 | 0.00 | 63 | 1016.9 |
| 20260902150504 | 87 | 43 | 2.0 | 8.0 | 0.00 | 0.00 | 0.00 | 64 | 1016.9 |
| 20260902150004 | 87 | 101 | 2.0 | 6.0 | 0.00 | 0.00 | 0.00 | 64 | 1016.8 |
| 20260902145505 | 87 | 178 | 3.0 | 6.0 | 0.00 | 0.00 | 0.00 | 64 | 1016.8 |
| 20260902144004 | 86 | 125 | 4.0 | 8.0 | 0.00 | 0.00 | 0.00 | 66 | 1016.8 |
| 20260902143505 | 86 | 99 | 1.0 | 5.0 | 0.00 | 0.00 | 0.00 | 65 | 1016.9 |
| 20260902143004 | 86 | 94 | 5.0 | 7.0 | 0.00 | 0.00 | 0.00 | 66 | 1016.9 |
| 20260902142504 | 86 | 172 | 3.0 | 6.0 | 0.00 | 0.00 | 0.00 | 67 | 1016.9 |
| 20260902142005 | 85 | 148 | 3.0 | 7.0 | 0.00 | 0.00 | 0.00 | 67 | 1016.8 |
| 20260902141004 | 84 | 125 | 4.0 | 8.0 | 0.00 | 0.00 | 0.00 | 68 | 1016.7 |
| 20260902140505 | 84 | 125 | 3.0 | 7.0 | 0.00 | 0.00 | 0.00 | 68 | 1016.7 |
| 20260902140004 | 83 | 113 | 3.0 | 8.0 | 0.00 | 0.00 | 0.00 | 69 | 1016.7 |
| 20260902135504 | 83 | 162 | 5.0 | 7.0 | 0.00 | 0.00 | 0.00 | 68 | 1016.8 |
| 20260902135005 | 83 | 120 | 3.0 | 6.0 | 0.00 | 0.00 | 0.00 | 68 | 1016.8 |
| 20260902134504 | 83 | 141 | 3.0 | 7.0 | 0.00 | 0.00 | 0.00 | 68 | 1016.8 |
| 20260902134005 | 83 | 171 | 3.0 | 6.0 | 0.00 | 0.00 | 0.00 | 68 | 1016.8 |
| 20260902133505 | 82 | 146 | 2.0 | 8.0 | 0.00 | 0.00 | 0.00 | 70 | 1016.8 |
| 20260902133004 | 82 | 159 | 4.0 | 8.0 | 0.00 | 0.00 | 0.00 | 71 | 1016.8 |
| 20260902132504 | 81 | 139 | 5.0 | 9.0 | 0.00 | 0.00 | 0.00 | 72 | 1016.8 |
| 20260902131505 | 81 | 124 | 3.0 | 9.0 | 0.00 | 0.00 | 0.00 | 73 | 1016.6 |
| 20260902131004 | 80 | 137 | 3.0 | 8.0 | 0.00 | 0.00 | 0.00 | 74 | 1016.6 |
| 20260902130504 | 80 | 107 | 5.0 | 8.0 | 0.00 | 0.00 | 0.00 | 75 | 1016.6 |
| 20260902125504 | 80 | 103 | 4.0 | 9.0 | 0.00 | 0.00 | 0.00 | 76 | 1016.5 |
| 20260902125004 | 79 | 123 | 2.0 | 3.0 | 0.00 | 0.00 | 0.00 | 76 | 1016.4 |
| 20260902124504 | 79 | 123 | 0.0 | 2.0 | 0.00 | 0.00 | 0.00 | 76 | 1016.4 |
| 20260902123504 | 79 | 123 | 1.0 | 2.0 | 0.00 | 0.00 | 0.00 | 75 | 1016.3 |
| 20260902122504 | 79 | 123 | 0.0 | 1.0 | 0.00 | 0.00 | 0.00 | 75 | 1016.3 |
| 20260902122004 | 78 | 123 | 0.0 | 2.0 | 0.00 | 0.00 | 0.00 | 75 | 1016.2 |
| 20260902121504 | 78 | 123 | 0.0 | 3.0 | 0.00 | 0.00 | 0.00 | 75 | 1016.1 |
| 20260902121004 | 79 | 123 | 2.0 | 3.0 | 0.00 | 0.00 | 0.00 | 75 | 1016.2 |
| 20260902120504 | 79 | 123 | 1.0 | 3.0 | 0.00 | 0.00 | 0.00 | 74 | 1016.2 |
| 20260902120004 | 79 | 123 | 1.0 | 5.0 | 0.00 | 0.00 | 0.00 | 74 | 1016.2 |
| 20260902115504 | 79 | 123 | 2.0 | 3.0 | 0.00 | 0.00 | 0.00 | 74 | 1016.1 |
| 20260902114504 | 79 | 123 | 1.0 | 3.0 | 0.00 | 0.00 | 0.00 | 74 | 1016.2 |
| 20260902114004 | 78 | 123 | 1.0 | 5.0 | 0.00 | 0.00 | 0.00 | 74 | 1016.2 |
| 20260902113504 | 78 | 159 | 1.0 | 2.0 | 0.00 | 0.00 | 0.00 | 75 | 1016.1 |
| 20260902113004 | 78 | 159 | 0.0 | 0.0 | 0.00 | 0.00 | 0.00 | 75 | 1016.1 |
| 20260902112004 | 78 | 159 | 0.0 | 0.0 | 0.00 | 0.00 | 0.00 | 74 | 1016.2 |
| 20260902111504 | 78 | 159 | 0.0 | 0.0 | 0.00 | 0.00 | 0.00 | 74 | 1016.3 |
| 20260902111004 | 79 | 159 | 0.0 | 0.0 | 0.00 | 0.00 | 0.00 | 73 | 1016.2 |
| 20260902110504 | 79 | 159 | 0.0 | 0.0 | 0.00 | 0.00 | 0.00 | 73 | 1016.2 |
| 20260902110007 | 79 | 159 | 0.0 | 0.0 | 0.00 | 0.00 | 0.00 | 72 | 1016.2 |
| 20260902105504 | 79 | 159 | 0.0 | 0.0 | 0.00 | 0.00 | 0.00 | 72 | 1016.2 |
| 20260902105004 | 79 | 159 | 0.0 | 0.0 | 0.00 | 0.00 | 0.00 | 72 | 1016.2 |
| 20260902104504 | 79 | 159 | 0.0 | 0.0 | 0.00 | 0.00 | 0.00 | 72 | 1016.1 |
| 20260902104004 | 79 | 159 | 0.0 | 0.0 | 0.00 | 0.00 | 0.00 | 72 | 1016.2 |
| 20260902103503 | 79 | 159 | 0.0 | 0.0 | 0.00 | 0.00 | 0.00 | 72 | 1016.2 |
| 20260902103004 | 79 | 159 | 0.0 | 0.0 | 0.00 | 0.00 | 0.00 | 72 | 1016.2 |
| 20260902102504 | 80 | 159 | 0.0 | 0.0 | 0.00 | 0.00 | 0.00 | 71 | 1016.1 |
| 20260902102004 | 80 | 159 | 0.0 | 0.0 | 0.00 | 0.00 | 0.00 | 71 | 1016.1 |
| 20260902101503 | 80 | 159 | 0.0 | 0.0 | 0.00 | 0.00 | 0.00 | 71 | 1016.1 |
| 20260902101003 | 80 | 159 | 0.0 | 0.0 | 0.00 | 0.00 | 0.00 | 70 | 1016.1 |
| 20260902100504 | 80 | 159 | 0.0 | 0.0 | 0.00 | 0.00 | 0.00 | 70 | 1016.1 |
| 20260902100004 | 80 | 159 | 0.0 | 0.0 | 0.00 | 0.00 | 0.00 | 70 | 1016.1 |
| 20260902094504 | 81 | 159 | 0.0 | 0.0 | 0.00 | 0.00 | 0.00 | 69 | 1016.0 |
| 20260902094003 | 81 | 159 | 0.0 | 0.0 | 0.00 | 0.00 | 0.00 | 68 | 1015.9 |
| 20260902093004 | 81 | 159 | 1.0 | 2.0 | 0.00 | 0.00 | 0.00 | 68 | 1015.9 |
| 20260902091503 | 81 | 159 | 0.0 | 0.0 | 0.00 | 0.00 | 0.00 | 68 | 1016.0 |
| 20260902091004 | 81 | 159 | 0.0 | 0.0 | 0.00 | 0.00 | 0.00 | 67 | 1016.0 |
| 20260902090504 | 81 | 159 | 0.0 | 0.0 | 0.00 | 0.00 | 0.00 | 66 | 1015.9 |
| 20260902090005 | 81 | 159 | 0.0 | 0.0 | 0.00 | 0.00 | 0.00 | 66 | 1016.0 |
| 20260902085504 | 82 | 159 | 0.0 | 0.0 | 0.00 | 0.00 | 0.00 | 66 | 1015.8 |
| 20260902085003 | 82 | 159 | 0.0 | 0.0 | 0.00 | 0.00 | 0.00 | 65 | 1015.9 |
| 20260902084003 | 83 | 159 | 0.0 | 5.0 | 0.00 | 0.00 | 0.00 | 64 | 1016.0 |
| 20260902083504 | 83 | 159 | 2.0 | 6.0 | 0.00 | 0.00 | 0.00 | 63 | 1015.9 |
| 20260902083006 | 83 | 159 | 3.0 | 7.0 | 0.00 | 0.00 | 0.00 | 63 | 1015.9 |
| 20260902082507 | 83 | 164 | 4.0 | 9.0 | 0.00 | 0.00 | 0.00 | 62 | 1015.9 |
| 20260902082007 | 83 | 169 | 3.0 | 12.0 | 0.00 | 0.00 | 0.00 | 62 | 1015.9 |
| 20260902081007 | 84 | 165 | 6.0 | 13.0 | 0.00 | 0.00 | 0.00 | 62 | 1015.9 |
| 20260902075507 | 84 | 160 | 6.0 | 12.0 | 0.00 | 0.00 | 0.00 | 62 | 1016.0 |
| 20260902075007 | 84 | 170 | 6.0 | 13.0 | 0.00 | 0.00 | 0.00 | 62 | 1015.9 |
| 20260902074507 | 84 | 173 | 6.0 | 12.0 | 0.00 | 0.00 | 0.00 | 62 | 1015.9 |
| 20260902074006 | 84 | 169 | 6.0 | 13.0 | 0.00 | 0.00 | 0.00 | 62 | 1016.0 |
| 20260902073507 | 84 | 177 | 5.0 | 10.0 | 0.00 | 0.00 | 0.00 | 62 | 1015.9 |
| 20260902073007 | 84 | 163 | 6.0 | 10.0 | 0.00 | 0.00 | 0.00 | 62 | 1016.1 |
| 20260902072506 | 84 | 168 | 5.0 | 10.0 | 0.00 | 0.00 | 0.00 | 62 | 1016.1 |
| 20260902071506 | 84 | 171 | 6.0 | 13.0 | 0.00 | 0.00 | 0.00 | 62 | 1016.0 |
| 20260902071007 | 85 | 171 | 7.0 | 13.0 | 0.00 | 0.00 | 0.00 | 63 | 1016.0 |
| 20260902070007 | 85 | 166 | 5.0 | 13.0 | 0.00 | 0.00 | 0.00 | 63 | 1016.0 |
| 20260902065506 | 85 | 168 | 9.0 | 13.0 | 0.00 | 0.00 | 0.00 | 63 | 1015.9 |
| 20260902065007 | 85 | 153 | 5.0 | 10.0 | 0.00 | 0.00 | 0.00 | 63 | 1016.0 |
| 20260902064506 | 85 | 163 | 6.0 | 15.0 | 0.00 | 0.00 | 0.00 | 62 | 1015.9 |
| 20260902063507 | 85 | 175 | 8.0 | 13.0 | 0.00 | 0.00 | 0.00 | 63 | 1015.8 |
| 20260902063006 | 85 | 170 | 9.0 | 13.0 | 0.00 | 0.00 | 0.00 | 62 | 1015.8 |
| 20260902062506 | 85 | 155 | 10.0 | 16.0 | 0.00 | 0.00 | 0.00 | 62 | 1015.8 |
| 20260902062007 | 85 | 162 | 12.0 | 18.0 | 0.00 | 0.00 | 0.00 | 62 | 1015.8 |
| 20260902061006 | 85 | 163 | 11.0 | 16.0 | 0.00 | 0.00 | 0.00 | 61 | 1015.7 |
| 20260902060506 | 86 | 156 | 9.0 | 18.0 | 0.00 | 0.00 | 0.00 | 62 | 1015.8 |
| 20260902060007 | 86 | 177 | 6.0 | 17.0 | 0.00 | 0.00 | 0.00 | 61 | 1015.8 |
| 20260902055506 | 86 | 169 | 9.0 | 13.0 | 0.00 | 0.00 | 0.00 | 61 | 1015.8 |
| 20260902055006 | 86 | 140 | 7.0 | 13.0 | 0.00 | 0.00 | 0.00 | 61 | 1015.8 |
| 20260902054506 | 86 | 179 | 9.0 | 16.0 | 0.00 | 0.00 | 0.00 | 60 | 1015.8 |
| 20260902054006 | 86 | 166 | 9.0 | 15.0 | 0.00 | 0.00 | 0.00 | 60 | 1015.8 |
| 20260902053506 | 87 | 167 | 7.0 | 15.0 | 0.00 | 0.00 | 0.00 | 60 | 1015.8 |
| 20260902053007 | 87 | 167 | 11.0 | 16.0 | 0.00 | 0.00 | 0.00 | 60 | 1015.7 |
| 20260902052507 | 87 | 167 | 7.0 | 15.0 | 0.00 | 0.00 | 0.00 | 60 | 1015.7 |
| 20260902052006 | 87 | 165 | 10.0 | 15.0 | 0.00 | 0.00 | 0.00 | 60 | 1015.7 |
| 20260902051506 | 87 | 158 | 7.0 | 13.0 | 0.00 | 0.00 | 0.00 | 59 | 1015.7 |
| 20260902050506 | 87 | 157 | 4.0 | 12.0 | 0.00 | 0.00 | 0.00 | 59 | 1015.7 |
| 20260902045007 | 88 | 171 | 5.0 | 10.0 | 0.00 | 0.00 | 0.00 | 57 | 1015.8 |
| 20260902044506 | 88 | 167 | 6.0 | 14.0 | 0.00 | 0.00 | 0.00 | 56 | 1015.7 |
| 20260902044006 | 88 | 168 | 11.0 | 16.0 | 0.00 | 0.00 | 0.00 | 56 | 1015.8 |
| 20260902043506 | 89 | 190 | 6.0 | 13.0 | 0.00 | 0.00 | 0.00 | 55 | 1015.7 |
| 20260902043007 | 89 | 162 | 6.0 | 16.0 | 0.00 | 0.00 | 0.00 | 55 | 1015.6 |
| 20260902042506 | 89 | 160 | 6.0 | 16.0 | 0.00 | 0.00 | 0.00 | 54 | 1015.6 |
| 20260902042006 | 89 | 153 | 6.0 | 10.0 | 0.00 | 0.00 | 0.00 | 53 | 1015.6 |
| 20260902041506 | 89 | 124 | 6.0 | 10.0 | 0.00 | 0.00 | 0.00 | 53 | 1015.5 |
| 20260902041006 | 89 | 135 | 6.0 | 13.0 | 0.00 | 0.00 | 0.00 | 53 | 1015.5 |
| 20260902040006 | 90 | 128 | 1.0 | 2.0 | 0.00 | 0.00 | 0.00 | 53 | 1015.3 |
| 20260902035506 | 90 | 128 | 1.0 | 2.0 | 0.00 | 0.00 | 0.00 | 52 | 1015.2 |
| 20260902035006 | 90 | 128 | 2.0 | 7.0 | 0.00 | 0.00 | 0.00 | 52 | 1015.2 |
| 20260902034006 | 91 | 168 | 3.0 | 7.0 | 0.00 | 0.00 | 0.00 | 51 | 1015.3 |
| 20260902033506 | 91 | 140 | 3.0 | 9.0 | 0.00 | 0.00 | 0.00 | 51 | 1015.3 |
| 20260902033006 | 91 | 144 | 3.0 | 7.0 | 0.00 | 0.00 | 0.00 | 51 | 1015.3 |
| 20260902032506 | 91 | 128 | 2.0 | 5.0 | 0.00 | 0.00 | 0.00 | 50 | 1015.1 |
| 20260902032006 | 91 | 134 | 4.0 | 10.0 | 0.00 | 0.00 | 0.00 | 50 | 1015.1 |
| 20260902031506 | 91 | 147 | 3.0 | 10.0 | 0.00 | 0.00 | 0.00 | 50 | 1015.2 |
| 20260902030505 | 91 | 150 | 1.0 | 5.0 | 0.00 | 0.00 | 0.00 | 50 | 1015.0 |
| 20260902030006 | 91 | 113 | 3.0 | 8.0 | 0.00 | 0.00 | 0.00 | 50 | 1015.0 |
| 20260902025506 | 91 | 136 | 2.0 | 5.0 | 0.00 | 0.00 | 0.00 | 50 | 1014.8 |
| 20260902024506 | 91 | 161 | 2.0 | 6.0 | 0.00 | 0.00 | 0.00 | 50 | 1014.7 |
| 20260902024006 | 91 | 122 | 2.0 | 7.0 | 0.00 | 0.00 | 0.00 | 50 | 1014.7 |
| 20260902023006 | 91 | 127 | 1.0 | 2.0 | 0.00 | 0.00 | 0.00 | 50 | 1014.5 |
| 20260902022506 | 91 | 127 | 2.0 | 5.0 | 0.00 | 0.00 | 0.00 | 49 | 1014.5 |
| 20260902022006 | 91 | 127 | 3.0 | 6.0 | 0.00 | 0.00 | 0.00 | 49 | 1014.4 |
| 20260902021506 | 91 | 121 | 2.0 | 5.0 | 0.00 | 0.00 | 0.00 | 49 | 1014.3 |
| 20260902021006 | 91 | 124 | 3.0 | 7.0 | 0.00 | 0.00 | 0.00 | 48 | 1014.2 |
| 20260902020505 | 91 | 130 | 2.0 | 7.0 | 0.00 | 0.00 | 0.00 | 48 | 1014.2 |
| 20260902020006 | 91 | 106 | 3.0 | 7.0 | 0.00 | 0.00 | 0.00 | 48 | 1014.0 |
| 20260902015506 | 91 | 121 | 2.0 | 3.0 | 0.00 | 0.00 | 0.00 | 49 | 1014.0 |
| 20260902015006 | 91 | 121 | 0.0 | 2.0 | 0.00 | 0.00 | 0.00 | 48 | 1013.9 |
| 20260902014506 | 92 | 121 | 0.0 | 2.0 | 0.00 | 0.00 | 0.00 | 48 | 1013.9 |
| 20260902013506 | 92 | 121 | 0.0 | 0.0 | 0.00 | 0.00 | 0.00 | 47 | 1013.7 |
| 20260902013005 | 92 | 121 | 0.0 | 1.0 | 0.00 | 0.00 | 0.00 | 47 | 1013.7 |
| 20260902012505 | 93 | 121 | 0.0 | 2.0 | 0.00 | 0.00 | 0.00 | 46 | 1013.7 |
| 20260902012006 | 93 | 121 | 1.0 | 2.0 | 0.00 | 0.00 | 0.00 | 46 | 1013.7 |
| 20260902011506 | 93 | 121 | 1.0 | 2.0 | 0.00 | 0.00 | 0.00 | 46 | 1013.6 |
| 20260902011006 | 93 | 121 | 1.0 | 5.0 | 0.00 | 0.00 | 0.00 | 45 | 1013.6 |
| 20260902010505 | 93 | 121 | 1.0 | 5.0 | 0.00 | 0.00 | 0.00 | 45 | 1013.5 |
| 20260902010006 | 94 | 121 | 2.0 | 3.0 | 0.00 | 0.00 | 0.00 | 44 | 1013.5 |
| 20260902005506 | 94 | 121 | 2.0 | 6.0 | 0.00 | 0.00 | 0.00 | 44 | 1013.6 |
| 20260902005006 | 94 | 121 | 2.0 | 9.0 | 0.00 | 0.00 | 0.00 | 44 | 1013.7 |
| 20260902004006 | 94 | 166 | 3.0 | 7.0 | 0.00 | 0.00 | 0.00 | 43 | 1013.6 |
| 20260902003506 | 94 | 174 | 3.0 | 10.0 | 0.00 | 0.00 | 0.00 | 43 | 1013.7 |
| 20260902003005 | 95 | 128 | 4.0 | 9.0 | 0.00 | 0.00 | 0.00 | 42 | 1013.6 |
| 20260902002506 | 95 | 131 | 3.0 | 8.0 | 0.00 | 0.00 | 0.00 | 43 | 1013.7 |
| 20260902002005 | 95 | 165 | 3.0 | 10.0 | 0.00 | 0.00 | 0.00 | 43 | 1013.8 |
| 20260902001505 | 95 | 143 | 3.0 | 8.0 | 0.00 | 0.00 | 0.00 | 43 | 1013.9 |
| 20260902001006 | 95 | 134 | 2.0 | 10.0 | 0.00 | 0.00 | 0.00 | 43 | 1013.8 |
| 20260902000506 | 95 | 131 | 3.0 | 10.0 | 0.00 | 0.00 | 0.00 | 43 | 1013.9 |
| 20260902000005 | 95 | 124 | 4.0 | 10.0 | 0.00 | 0.00 | 0.00 | 43 | 1014.0 |
| 20260901235505 | 96 | 108 | 5.0 | 10.0 | 0.00 | 0.00 | 0.00 | 43 | 1013.9 |
| 20260901235005 | 96 | 118 | 3.0 | 12.0 | 0.00 | 0.00 | 0.00 | 42 | 1013.9 |
| 20260901234505 | 96 | 117 | 6.0 | 12.0 | 0.00 | 0.00 | 0.00 | 42 | 1013.9 |
| 20260901233006 | 97 | 166 | 3.0 | 9.0 | 0.00 | 0.00 | 0.00 | 41 | 1014.0 |
| 20260901232506 | 97 | 135 | 6.0 | 10.0 | 0.00 | 0.00 | 0.00 | 41 | 1014.0 |
| 20260901232005 | 97 | 164 | 5.0 | 10.0 | 0.00 | 0.00 | 0.00 | 41 | 1014.1 |
| 20260901231505 | 97 | 124 | 5.0 | 15.0 | 0.00 | 0.00 | 0.00 | 41 | 1014.2 |
| 20260901231005 | 98 | 148 | 6.0 | 16.0 | 0.00 | 0.00 | 0.00 | 41 | 1014.1 |
| 20260901230505 | 97 | 106 | 8.0 | 12.0 | 0.00 | 0.00 | 0.00 | 40 | 1014.1 |
| 20260901225506 | 98 | 143 | 6.0 | 10.0 | 0.00 | 0.00 | 0.00 | 39 | 1014.0 |
| 20260901225005 | 98 | 94 | 5.0 | 10.0 | 0.00 | 0.00 | 0.00 | 40 | 1014.1 |